Year,Month,Day,Hour,Minute,Value (Times are PST for temperature in C)
2010,06,30,00,00,9.60
2010,06,30,00,01,9.60
2010,06,30,00,02,9.60
2010,06,30,00,03,9.70
2010,06,30,00,04,9.70
2010,06,30,00,05,9.80
2010,06,30,00,06,9.90
2010,06,30,00,07,10.00
2010,06,30,00,08,10.00
2010,06,30,00,09,10.10
2010,06,30,00,10,10.10
2010,06,30,00,11,10.20
2010,06,30,00,12,10.20
2010,06,30,00,13,10.20
2010,06,30,00,14,10.20
2010,06,30,00,15,10.20
2010,06,30,00,16,10.20
2010,06,30,00,17,10.30
2010,06,30,00,18,10.30
2010,06,30,00,19,10.30
2010,06,30,00,20,10.30
2010,06,30,00,21,10.40
2010,06,30,00,22,10.40
2010,06,30,00,23,10.40
2010,06,30,00,24,10.40
2010,06,30,00,25,10.40
2010,06,30,00,26,10.40
2010,06,30,00,27,10.40
2010,06,30,00,28,10.40
2010,06,30,00,29,10.40
2010,06,30,00,30,10.40
2010,06,30,00,31,10.40
2010,06,30,00,32,10.30
2010,06,30,00,33,10.30
2010,06,30,00,34,10.30
2010,06,30,00,35,10.30
2010,06,30,00,36,10.30
2010,06,30,00,37,10.30
2010,06,30,00,38,10.30
2010,06,30,00,39,10.30
2010,06,30,00,40,10.30
2010,06,30,00,41,10.40
2010,06,30,00,42,10.40
2010,06,30,00,43,10.40
2010,06,30,00,44,10.40
2010,06,30,00,45,10.40
2010,06,30,00,46,10.40
2010,06,30,00,47,10.40
2010,06,30,00,48,10.40
2010,06,30,00,49,10.40
2010,06,30,00,50,10.40
2010,06,30,00,51,10.40
2010,06,30,00,52,10.40
2010,06,30,00,53,10.40
2010,06,30,00,54,10.40
2010,06,30,00,55,10.40
2010,06,30,00,56,10.40
2010,06,30,00,57,10.40
2010,06,30,00,58,10.30
2010,06,30,00,59,10.30
2010,06,30,01,00,10.30
2010,06,30,01,01,10.20
2010,06,30,01,02,10.20
2010,06,30,01,03,10.10
2010,06,30,01,04,10.00
2010,06,30,01,05,9.90
2010,06,30,01,06,9.90
2010,06,30,01,07,9.90
2010,06,30,01,08,9.80
2010,06,30,01,09,9.70
2010,06,30,01,10,9.70
2010,06,30,01,11,9.60
2010,06,30,01,12,9.60
2010,06,30,01,13,9.50
2010,06,30,01,14,9.40
2010,06,30,01,15,9.40
2010,06,30,01,16,9.30
2010,06,30,01,17,9.30
2010,06,30,01,18,9.30
2010,06,30,01,19,9.20
2010,06,30,01,20,9.20
2010,06,30,01,21,9.10
2010,06,30,01,22,9.10
2010,06,30,01,23,9.10
2010,06,30,01,24,9.10
2010,06,30,01,25,9.10
2010,06,30,01,26,9.00
2010,06,30,01,27,9.00
2010,06,30,01,28,9.00
2010,06,30,01,29,9.00
2010,06,30,01,30,9.00
2010,06,30,01,31,9.00
2010,06,30,01,32,9.10
2010,06,30,01,33,9.10
2010,06,30,01,34,9.10
2010,06,30,01,35,9.20
2010,06,30,01,36,9.20
2010,06,30,01,37,9.20
2010,06,30,01,38,9.20
2010,06,30,01,39,9.20
2010,06,30,01,40,9.20
2010,06,30,01,41,9.20
2010,06,30,01,42,9.20
2010,06,30,01,43,9.20
2010,06,30,01,44,9.10
2010,06,30,01,45,9.10
2010,06,30,01,46,9.10
2010,06,30,01,47,9.10
2010,06,30,01,48,9.10
2010,06,30,01,49,9.00
2010,06,30,01,50,9.00
2010,06,30,01,51,8.90
2010,06,30,01,52,8.90
2010,06,30,01,53,8.80
2010,06,30,01,54,8.80
2010,06,30,01,55,8.80
2010,06,30,01,56,8.70
2010,06,30,01,57,8.70
2010,06,30,01,58,8.70
2010,06,30,01,59,8.60
2010,06,30,02,00,8.60
2010,06,30,02,01,8.60
2010,06,30,02,02,8.60
2010,06,30,02,03,8.60
2010,06,30,02,04,8.50
2010,06,30,02,05,8.50
2010,06,30,02,06,8.50
2010,06,30,02,07,8.40
2010,06,30,02,08,8.40
2010,06,30,02,09,8.40
2010,06,30,02,10,8.40
2010,06,30,02,11,8.40
2010,06,30,02,12,8.40
2010,06,30,02,13,8.30
2010,06,30,02,14,8.30
2010,06,30,02,15,8.30
2010,06,30,02,16,8.30
2010,06,30,02,17,8.30
2010,06,30,02,18,8.30
2010,06,30,02,19,8.30
2010,06,30,02,20,8.30
2010,06,30,02,21,8.30
2010,06,30,02,22,8.30
2010,06,30,02,23,8.30
2010,06,30,02,24,8.30
2010,06,30,02,25,8.30
2010,06,30,02,26,8.30
2010,06,30,02,27,8.30
2010,06,30,02,28,8.30
2010,06,30,02,29,8.30
2010,06,30,02,30,8.30
2010,06,30,02,31,8.30
2010,06,30,02,32,8.30
2010,06,30,02,33,8.30
2010,06,30,02,34,8.30
2010,06,30,02,35,8.30
2010,06,30,02,36,8.30
2010,06,30,02,37,8.30
2010,06,30,02,38,8.30
2010,06,30,02,39,8.30
2010,06,30,02,40,8.30
2010,06,30,02,41,8.30
2010,06,30,02,42,8.40
2010,06,30,02,43,8.40
2010,06,30,02,44,8.40
2010,06,30,02,45,8.40
2010,06,30,02,46,8.40
2010,06,30,02,47,8.40
2010,06,30,02,48,8.40
2010,06,30,02,49,8.40
2010,06,30,02,50,8.40
2010,06,30,02,51,8.40
2010,06,30,02,52,8.40
2010,06,30,02,53,8.40
2010,06,30,02,54,8.40
2010,06,30,02,55,8.40
2010,06,30,02,56,8.30
2010,06,30,02,57,8.30
2010,06,30,02,58,8.30
2010,06,30,02,59,8.30
2010,06,30,03,00,8.40
2010,06,30,03,01,8.40
2010,06,30,03,02,8.40
2010,06,30,03,03,8.40
2010,06,30,03,04,8.50
2010,06,30,03,05,8.60
2010,06,30,03,06,8.60
2010,06,30,03,07,8.60
2010,06,30,03,08,8.60
2010,06,30,03,09,8.70
2010,06,30,03,10,8.70
2010,06,30,03,11,8.70
2010,06,30,03,12,8.80
2010,06,30,03,13,8.80
2010,06,30,03,14,8.80
2010,06,30,03,15,8.80
2010,06,30,03,16,8.80
2010,06,30,03,17,8.80
2010,06,30,03,18,8.80
2010,06,30,03,19,8.80
2010,06,30,03,20,8.70
2010,06,30,03,21,8.70
2010,06,30,03,22,8.70
2010,06,30,03,23,8.70
2010,06,30,03,24,8.70
2010,06,30,03,25,8.70
2010,06,30,03,26,8.60
2010,06,30,03,27,8.60
2010,06,30,03,28,8.60
2010,06,30,03,29,8.60
2010,06,30,03,30,8.50
2010,06,30,03,31,8.50
2010,06,30,03,32,8.40
2010,06,30,03,33,8.40
2010,06,30,03,34,8.30
2010,06,30,03,35,8.20
2010,06,30,03,36,8.20
2010,06,30,03,37,8.10
2010,06,30,03,38,8.10
2010,06,30,03,39,8.10
2010,06,30,03,40,8.10
2010,06,30,03,41,8.10
2010,06,30,03,42,8.10
2010,06,30,03,43,8.10
2010,06,30,03,44,8.10
2010,06,30,03,45,8.10
2010,06,30,03,46,8.10
2010,06,30,03,47,8.10
2010,06,30,03,48,8.10
2010,06,30,03,49,8.10
2010,06,30,03,50,8.20
2010,06,30,03,51,8.20
2010,06,30,03,52,8.20
2010,06,30,03,53,8.20
2010,06,30,03,54,8.20
2010,06,30,03,55,8.20
2010,06,30,03,56,8.20
2010,06,30,03,57,8.30
2010,06,30,03,58,8.30
2010,06,30,03,59,8.30
2010,06,30,04,00,8.30
2010,06,30,04,01,8.40
2010,06,30,04,02,8.30
2010,06,30,04,03,8.30
2010,06,30,04,04,8.20
2010,06,30,04,05,8.20
2010,06,30,04,06,8.10
2010,06,30,04,07,8.10
2010,06,30,04,08,8.00
2010,06,30,04,09,7.90
2010,06,30,04,10,7.90
2010,06,30,04,11,7.80
2010,06,30,04,12,7.80
2010,06,30,04,13,7.70
2010,06,30,04,14,7.70
2010,06,30,04,15,7.70
2010,06,30,04,16,7.60
2010,06,30,04,17,7.60
2010,06,30,04,18,7.60
2010,06,30,04,19,7.60
2010,06,30,04,20,7.60
2010,06,30,04,21,7.50
2010,06,30,04,22,7.50
2010,06,30,04,23,7.50
2010,06,30,04,24,7.40
2010,06,30,04,25,7.40
2010,06,30,04,26,7.40
2010,06,30,04,27,7.30
2010,06,30,04,28,7.30
2010,06,30,04,29,7.30
2010,06,30,04,30,7.20
2010,06,30,04,31,7.20
2010,06,30,04,32,7.20
2010,06,30,04,33,7.20
2010,06,30,04,34,7.20
2010,06,30,04,35,7.10
2010,06,30,04,36,7.10
2010,06,30,04,37,7.10
2010,06,30,04,38,7.10
2010,06,30,04,39,7.10
2010,06,30,04,40,7.10
2010,06,30,04,41,7.10
2010,06,30,04,42,7.10
2010,06,30,04,43,7.10
2010,06,30,04,44,7.10
2010,06,30,04,45,7.10
2010,06,30,04,46,7.20
2010,06,30,04,47,7.20
2010,06,30,04,48,7.20
2010,06,30,04,49,7.20
2010,06,30,04,50,7.20
2010,06,30,04,51,7.20
2010,06,30,04,52,7.20
2010,06,30,04,53,7.10
2010,06,30,04,54,7.10
2010,06,30,04,55,7.10
2010,06,30,04,56,7.10
2010,06,30,04,57,7.10
2010,06,30,04,58,7.10
2010,06,30,04,59,7.10
2010,06,30,05,00,7.10
2010,06,30,05,01,7.10
2010,06,30,05,02,7.10
2010,06,30,05,03,7.10
2010,06,30,05,04,7.10
2010,06,30,05,05,7.10
2010,06,30,05,06,7.20
2010,06,30,05,07,7.20
2010,06,30,05,08,7.20
2010,06,30,05,09,7.20
2010,06,30,05,10,7.20
2010,06,30,05,11,7.20
2010,06,30,05,12,7.20
2010,06,30,05,13,7.20
2010,06,30,05,14,7.20
2010,06,30,05,15,7.20
2010,06,30,05,16,7.10
2010,06,30,05,17,7.00
2010,06,30,05,18,6.90
2010,06,30,05,19,6.90
2010,06,30,05,20,6.80
2010,06,30,05,21,6.70
2010,06,30,05,22,6.60
2010,06,30,05,23,6.60
2010,06,30,05,24,6.60
2010,06,30,05,25,6.50
2010,06,30,05,26,6.40
2010,06,30,05,27,6.40
2010,06,30,05,28,6.40
2010,06,30,05,29,6.40
2010,06,30,05,30,6.40
2010,06,30,05,31,6.40
2010,06,30,05,32,6.50
2010,06,30,05,33,6.50
2010,06,30,05,34,6.60
2010,06,30,05,35,6.70
2010,06,30,05,36,6.70
2010,06,30,05,37,6.80
2010,06,30,05,38,6.80
2010,06,30,05,39,6.90
2010,06,30,05,40,6.90
2010,06,30,05,41,7.00
2010,06,30,05,42,7.20
2010,06,30,05,43,7.30
2010,06,30,05,44,7.40
2010,06,30,05,45,7.50
2010,06,30,05,46,7.50
2010,06,30,05,47,7.60
2010,06,30,05,48,7.60
2010,06,30,05,49,7.60
2010,06,30,05,50,7.60
2010,06,30,05,51,7.70
2010,06,30,05,52,7.60
2010,06,30,05,53,7.60
2010,06,30,05,54,7.60
2010,06,30,05,55,7.60
2010,06,30,05,56,7.50
2010,06,30,05,57,7.50
2010,06,30,05,58,7.50
2010,06,30,05,59,7.50
2010,06,30,06,00,7.50
2010,06,30,06,01,7.50
2010,06,30,06,02,7.60
2010,06,30,06,03,7.60
2010,06,30,06,04,7.60
2010,06,30,06,05,7.60
2010,06,30,06,06,7.60
2010,06,30,06,07,7.50
2010,06,30,06,08,7.50
2010,06,30,06,09,7.60
2010,06,30,06,10,7.60
2010,06,30,06,11,7.60
2010,06,30,06,12,7.60
2010,06,30,06,13,7.60
2010,06,30,06,14,7.70
2010,06,30,06,15,7.70
2010,06,30,06,16,7.70
2010,06,30,06,17,7.80
2010,06,30,06,18,7.80
2010,06,30,06,19,7.80
2010,06,30,06,20,7.90
2010,06,30,06,21,7.90
2010,06,30,06,22,7.90
2010,06,30,06,23,7.90
2010,06,30,06,24,7.90
2010,06,30,06,25,7.90
2010,06,30,06,26,8.00
2010,06,30,06,27,8.00
2010,06,30,06,28,8.00
2010,06,30,06,29,8.10
2010,06,30,06,30,8.10
2010,06,30,06,31,8.10
2010,06,30,06,32,8.10
2010,06,30,06,33,8.00
2010,06,30,06,34,8.10
2010,06,30,06,35,8.10
2010,06,30,06,36,8.20
2010,06,30,06,37,8.20
2010,06,30,06,38,8.20
2010,06,30,06,39,8.30
2010,06,30,06,40,8.40
2010,06,30,06,41,8.40
2010,06,30,06,42,8.40
2010,06,30,06,43,8.50
2010,06,30,06,44,8.50
2010,06,30,06,45,8.50
2010,06,30,06,46,8.60
2010,06,30,06,47,8.60
2010,06,30,06,48,8.60
2010,06,30,06,49,8.70
2010,06,30,06,50,8.70
2010,06,30,06,51,8.70
2010,06,30,06,52,8.80
2010,06,30,06,53,8.90
2010,06,30,06,54,9.00
2010,06,30,06,55,9.10
2010,06,30,06,56,9.30
2010,06,30,06,57,9.40
2010,06,30,06,58,9.50
2010,06,30,06,59,9.50
2010,06,30,07,00,9.60
2010,06,30,07,01,9.60
2010,06,30,07,02,9.70
2010,06,30,07,03,9.70
2010,06,30,07,04,9.80
2010,06,30,07,05,9.80
2010,06,30,07,06,9.90
2010,06,30,07,07,9.90
2010,06,30,07,08,10.00
2010,06,30,07,09,10.10
2010,06,30,07,10,10.20
2010,06,30,07,11,10.30
2010,06,30,07,12,10.40
2010,06,30,07,13,10.40
2010,06,30,07,14,10.60
2010,06,30,07,15,10.70
2010,06,30,07,16,10.80
2010,06,30,07,17,10.90
2010,06,30,07,18,11.00
2010,06,30,07,19,11.10
2010,06,30,07,20,11.20
2010,06,30,07,21,11.20
2010,06,30,07,22,11.30
2010,06,30,07,23,11.30
2010,06,30,07,24,11.30
2010,06,30,07,25,11.30
2010,06,30,07,26,11.40
2010,06,30,07,27,11.40
2010,06,30,07,28,11.40
2010,06,30,07,29,11.50
2010,06,30,07,30,11.60
2010,06,30,07,31,11.60
2010,06,30,07,32,11.70
2010,06,30,07,33,11.80
2010,06,30,07,34,11.80
2010,06,30,07,35,11.90
2010,06,30,07,36,12.00
2010,06,30,07,37,12.10
2010,06,30,07,38,12.20
2010,06,30,07,39,12.30
2010,06,30,07,40,12.40
2010,06,30,07,41,12.60
2010,06,30,07,42,12.70
2010,06,30,07,43,12.70
2010,06,30,07,44,12.70
2010,06,30,07,45,12.80
2010,06,30,07,46,12.80
2010,06,30,07,47,12.80
2010,06,30,07,48,12.90
2010,06,30,07,49,12.90
2010,06,30,07,50,12.90
2010,06,30,07,51,13.00
2010,06,30,07,52,13.00
2010,06,30,07,53,13.10
2010,06,30,07,54,13.10
2010,06,30,07,55,13.20
2010,06,30,07,56,13.20
2010,06,30,07,57,13.20
2010,06,30,07,58,13.30
2010,06,30,07,59,13.40
2010,06,30,08,00,13.50
2010,06,30,08,01,13.60
2010,06,30,08,02,13.80
2010,06,30,08,03,13.90
2010,06,30,08,04,14.00
2010,06,30,08,05,14.10
2010,06,30,08,06,14.10
2010,06,30,08,07,14.10
2010,06,30,08,08,14.00
2010,06,30,08,09,13.90
2010,06,30,08,10,13.90
2010,06,30,08,11,13.80
2010,06,30,08,12,13.70
2010,06,30,08,13,13.60
2010,06,30,08,14,13.60
2010,06,30,08,15,13.60
2010,06,30,08,16,13.60
2010,06,30,08,17,13.60
2010,06,30,08,18,13.60
2010,06,30,08,19,13.60
2010,06,30,08,20,13.70
2010,06,30,08,21,13.70
2010,06,30,08,22,13.80
2010,06,30,08,23,13.90
2010,06,30,08,24,14.00
2010,06,30,08,25,14.10
2010,06,30,08,26,14.20
2010,06,30,08,27,14.30
2010,06,30,08,28,14.30
2010,06,30,08,29,14.30
2010,06,30,08,30,14.30
2010,06,30,08,31,14.30
2010,06,30,08,32,14.20
2010,06,30,08,33,14.20
2010,06,30,08,34,14.10
2010,06,30,08,35,14.00
2010,06,30,08,36,14.00
2010,06,30,08,37,14.00
2010,06,30,08,38,14.00
2010,06,30,08,39,14.00
2010,06,30,08,40,14.00
2010,06,30,08,41,14.00
2010,06,30,08,42,14.00
2010,06,30,08,43,14.00
2010,06,30,08,44,14.10
2010,06,30,08,45,14.20
2010,06,30,08,46,14.30
2010,06,30,08,47,14.50
2010,06,30,08,48,14.70
2010,06,30,08,49,14.90
2010,06,30,08,50,15.00
2010,06,30,08,51,15.00
2010,06,30,08,52,15.10
2010,06,30,08,53,15.20
2010,06,30,08,54,15.30
2010,06,30,08,55,15.40
2010,06,30,08,56,15.40
2010,06,30,08,57,15.50
2010,06,30,08,58,15.60
2010,06,30,08,59,15.60
2010,06,30,09,00,15.60
2010,06,30,09,01,15.60
2010,06,30,09,02,15.70
2010,06,30,09,03,15.70
2010,06,30,09,04,15.80
2010,06,30,09,05,15.80
2010,06,30,09,06,15.80
2010,06,30,09,07,15.80
2010,06,30,09,08,15.70
2010,06,30,09,09,15.60
2010,06,30,09,10,15.50
2010,06,30,09,11,15.30
2010,06,30,09,12,15.00
2010,06,30,09,13,14.90
2010,06,30,09,14,14.80
2010,06,30,09,15,14.60
2010,06,30,09,16,14.50
2010,06,30,09,17,14.30
2010,06,30,09,18,14.10
2010,06,30,09,19,13.90
2010,06,30,09,20,13.70
2010,06,30,09,21,13.50
2010,06,30,09,22,13.40
2010,06,30,09,23,13.30
2010,06,30,09,24,13.30
2010,06,30,09,25,13.30
2010,06,30,09,26,13.30
2010,06,30,09,27,13.30
2010,06,30,09,28,13.30
2010,06,30,09,29,13.30
2010,06,30,09,30,13.30
2010,06,30,09,31,13.30
2010,06,30,09,32,13.30
2010,06,30,09,33,13.30
2010,06,30,09,34,13.40
2010,06,30,09,35,13.50
2010,06,30,09,36,13.60
2010,06,30,09,37,13.70
2010,06,30,09,38,13.80
2010,06,30,09,39,13.80
2010,06,30,09,40,13.90
2010,06,30,09,41,14.00
2010,06,30,09,42,14.10
2010,06,30,09,43,14.10
2010,06,30,09,44,14.10
2010,06,30,09,45,14.10
2010,06,30,09,46,14.10
2010,06,30,09,47,14.10
2010,06,30,09,48,14.10
2010,06,30,09,49,14.10
2010,06,30,09,50,14.20
2010,06,30,09,51,14.30
2010,06,30,09,52,14.40
2010,06,30,09,53,14.50
2010,06,30,09,54,14.60
2010,06,30,09,55,14.80
2010,06,30,09,56,14.90
2010,06,30,09,57,15.00
2010,06,30,09,58,15.20
2010,06,30,09,59,15.30
2010,06,30,10,00,15.30
2010,06,30,10,01,15.30
2010,06,30,10,02,15.30
2010,06,30,10,03,15.30
2010,06,30,10,04,15.30
2010,06,30,10,05,15.30
2010,06,30,10,06,15.30
2010,06,30,10,07,15.30
2010,06,30,10,08,15.30
2010,06,30,10,09,15.30
2010,06,30,10,10,15.30
2010,06,30,10,11,15.30
2010,06,30,10,12,15.20
2010,06,30,10,13,15.20
2010,06,30,10,14,15.20
2010,06,30,10,15,15.30
2010,06,30,10,16,15.30
2010,06,30,10,17,15.40
2010,06,30,10,18,15.30
2010,06,30,10,19,15.20
2010,06,30,10,20,15.00
2010,06,30,10,21,15.00
2010,06,30,10,22,15.00
2010,06,30,10,23,15.00
2010,06,30,10,24,15.00
2010,06,30,10,25,15.00
2010,06,30,10,26,14.90
2010,06,30,10,27,14.90
2010,06,30,10,28,14.90
2010,06,30,10,29,14.90
2010,06,30,10,30,15.00
2010,06,30,10,31,15.00
2010,06,30,10,32,15.00
2010,06,30,10,33,15.10
2010,06,30,10,34,15.20
2010,06,30,10,35,15.20
2010,06,30,10,36,15.20
2010,06,30,10,37,15.20
2010,06,30,10,38,15.20
2010,06,30,10,39,15.30
2010,06,30,10,40,15.30
2010,06,30,10,41,15.40
2010,06,30,10,42,15.50
2010,06,30,10,43,15.60
2010,06,30,10,44,15.70
2010,06,30,10,45,15.80
2010,06,30,10,46,15.80
2010,06,30,10,47,15.90
2010,06,30,10,48,16.00
2010,06,30,10,49,16.00
2010,06,30,10,50,16.10
2010,06,30,10,51,16.10
2010,06,30,10,52,16.20
2010,06,30,10,53,16.20
2010,06,30,10,54,16.10
2010,06,30,10,55,16.10
2010,06,30,10,56,16.20
2010,06,30,10,57,16.20
2010,06,30,10,58,16.30
2010,06,30,10,59,16.30
2010,06,30,11,00,16.30
2010,06,30,11,01,16.20
2010,06,30,11,02,16.20
2010,06,30,11,03,16.20
2010,06,30,11,04,16.20
2010,06,30,11,05,16.20
2010,06,30,11,06,16.30
2010,06,30,11,07,16.20
2010,06,30,11,08,16.20
2010,06,30,11,09,16.20
2010,06,30,11,10,16.10
2010,06,30,11,11,16.10
2010,06,30,11,12,16.10
2010,06,30,11,13,16.20
2010,06,30,11,14,16.30
2010,06,30,11,15,16.30
2010,06,30,11,16,16.10
2010,06,30,11,17,16.00
2010,06,30,11,18,15.90
2010,06,30,11,19,16.00
2010,06,30,11,20,16.00
2010,06,30,11,21,16.10
2010,06,30,11,22,16.20
2010,06,30,11,23,16.20
2010,06,30,11,24,16.20
2010,06,30,11,25,16.10
2010,06,30,11,26,16.10
2010,06,30,11,27,15.90
2010,06,30,11,28,15.80
2010,06,30,11,29,15.70
2010,06,30,11,30,15.80
2010,06,30,11,31,15.80
2010,06,30,11,32,15.90
2010,06,30,11,33,15.90
2010,06,30,11,34,16.00
2010,06,30,11,35,16.10
2010,06,30,11,36,16.30
2010,06,30,11,37,16.40
2010,06,30,11,38,16.40
2010,06,30,11,39,16.30
2010,06,30,11,40,16.30
2010,06,30,11,41,16.40
2010,06,30,11,42,16.40
2010,06,30,11,43,16.60
2010,06,30,11,44,16.70
2010,06,30,11,45,16.70
2010,06,30,11,46,16.80
2010,06,30,11,47,16.90
2010,06,30,11,48,16.90
2010,06,30,11,49,17.00
2010,06,30,11,50,17.10
2010,06,30,11,51,17.20
2010,06,30,11,52,17.20
2010,06,30,11,53,17.20
2010,06,30,11,54,17.30
2010,06,30,11,55,17.30
2010,06,30,11,56,17.30
2010,06,30,11,57,17.20
2010,06,30,11,58,17.10
2010,06,30,11,59,16.80
2010,06,30,12,00,16.60
2010,06,30,12,01,16.40
2010,06,30,12,02,16.40
2010,06,30,12,03,16.40
2010,06,30,12,04,16.40
2010,06,30,12,05,16.30
2010,06,30,12,06,16.30
2010,06,30,12,07,16.30
2010,06,30,12,08,16.40
2010,06,30,12,09,16.50
2010,06,30,12,10,16.60
2010,06,30,12,11,16.70
2010,06,30,12,12,16.70
2010,06,30,12,13,16.80
2010,06,30,12,14,16.80
2010,06,30,12,15,16.80
2010,06,30,12,16,16.70
2010,06,30,12,17,16.70
2010,06,30,12,18,16.60
2010,06,30,12,19,16.50
2010,06,30,12,20,16.40
2010,06,30,12,21,16.30
2010,06,30,12,22,16.20
2010,06,30,12,23,16.10
2010,06,30,12,24,16.10
2010,06,30,12,25,16.20
2010,06,30,12,26,16.20
2010,06,30,12,27,16.30
2010,06,30,12,28,16.50
2010,06,30,12,29,16.60
2010,06,30,12,30,16.80
2010,06,30,12,31,16.90
2010,06,30,12,32,17.00
2010,06,30,12,33,17.00
2010,06,30,12,34,16.90
2010,06,30,12,35,16.80
2010,06,30,12,36,16.80
2010,06,30,12,37,16.80
2010,06,30,12,38,16.70
2010,06,30,12,39,16.70
2010,06,30,12,40,16.70
2010,06,30,12,41,16.70
2010,06,30,12,42,16.70
2010,06,30,12,43,16.80
2010,06,30,12,44,16.80
2010,06,30,12,45,16.80
2010,06,30,12,46,16.90
2010,06,30,12,47,16.80
2010,06,30,12,48,16.80
2010,06,30,12,49,16.70
2010,06,30,12,50,16.70
2010,06,30,12,51,16.70
2010,06,30,12,52,16.70
2010,06,30,12,53,16.80
2010,06,30,12,54,16.80
2010,06,30,12,55,16.80
2010,06,30,12,56,16.80
2010,06,30,12,57,16.80
2010,06,30,12,58,16.80
2010,06,30,12,59,16.80
2010,06,30,13,00,16.90
2010,06,30,13,01,17.10
2010,06,30,13,02,17.20
2010,06,30,13,03,17.30
2010,06,30,13,04,17.40
2010,06,30,13,05,17.50
2010,06,30,13,06,17.60
2010,06,30,13,07,17.70
2010,06,30,13,08,17.70
2010,06,30,13,09,17.70
2010,06,30,13,10,17.60
2010,06,30,13,11,17.50
2010,06,30,13,12,17.40
2010,06,30,13,13,17.40
2010,06,30,13,14,17.30
2010,06,30,13,15,17.20
2010,06,30,13,16,17.00
2010,06,30,13,17,16.80
2010,06,30,13,18,16.70
2010,06,30,13,19,16.60
2010,06,30,13,20,16.60
2010,06,30,13,21,16.60
2010,06,30,13,22,16.60
2010,06,30,13,23,16.60
2010,06,30,13,24,16.60
2010,06,30,13,25,16.70
2010,06,30,13,26,16.80
2010,06,30,13,27,16.80
2010,06,30,13,28,16.90
2010,06,30,13,29,16.90
2010,06,30,13,30,16.90
2010,06,30,13,31,16.80
2010,06,30,13,32,16.80
2010,06,30,13,33,16.90
2010,06,30,13,34,17.00
2010,06,30,13,35,17.10
2010,06,30,13,36,17.30
2010,06,30,13,37,17.40
2010,06,30,13,38,17.30
2010,06,30,13,39,17.20
2010,06,30,13,40,17.20
2010,06,30,13,41,17.10
2010,06,30,13,42,17.00
2010,06,30,13,43,17.10
2010,06,30,13,44,17.10
2010,06,30,13,45,17.10
2010,06,30,13,46,17.00
2010,06,30,13,47,17.10
2010,06,30,13,48,17.20
2010,06,30,13,49,17.30
2010,06,30,13,50,17.30
2010,06,30,13,51,17.20
2010,06,30,13,52,17.10
2010,06,30,13,53,17.10
2010,06,30,13,54,17.00
2010,06,30,13,55,17.00
2010,06,30,13,56,17.00
2010,06,30,13,57,17.00
2010,06,30,13,58,16.90
2010,06,30,13,59,16.80
2010,06,30,14,00,16.70
2010,06,30,14,01,16.60
2010,06,30,14,02,16.60
2010,06,30,14,03,16.60
2010,06,30,14,04,16.50
2010,06,30,14,05,16.50
2010,06,30,14,06,16.50
2010,06,30,14,07,16.60
2010,06,30,14,08,16.60
2010,06,30,14,09,16.60
2010,06,30,14,10,16.70
2010,06,30,14,11,16.60
2010,06,30,14,12,16.60
2010,06,30,14,13,16.60
2010,06,30,14,14,16.70
2010,06,30,14,15,16.80
2010,06,30,14,16,16.80
2010,06,30,14,17,16.80
2010,06,30,14,18,16.80
2010,06,30,14,19,16.80
2010,06,30,14,20,16.70
2010,06,30,14,21,16.60
2010,06,30,14,22,16.50
2010,06,30,14,23,16.40
2010,06,30,14,24,16.30
2010,06,30,14,25,16.20
2010,06,30,14,26,16.30
2010,06,30,14,27,16.30
2010,06,30,14,28,16.30
2010,06,30,14,29,16.30
2010,06,30,14,30,16.30
2010,06,30,14,31,16.40
2010,06,30,14,32,16.50
2010,06,30,14,33,16.60
2010,06,30,14,34,16.70
2010,06,30,14,35,16.70
2010,06,30,14,36,16.70
2010,06,30,14,37,16.70
2010,06,30,14,38,16.70
2010,06,30,14,39,16.70
2010,06,30,14,40,16.70
2010,06,30,14,41,16.70
2010,06,30,14,42,16.70
2010,06,30,14,43,16.70
2010,06,30,14,44,16.70
2010,06,30,14,45,16.80
2010,06,30,14,46,16.70
2010,06,30,14,47,16.70
2010,06,30,14,48,16.60
2010,06,30,14,49,16.60
2010,06,30,14,50,16.50
2010,06,30,14,51,16.40
2010,06,30,14,52,16.40
2010,06,30,14,53,16.50
2010,06,30,14,54,16.50
2010,06,30,14,55,16.60
2010,06,30,14,56,16.70
2010,06,30,14,57,16.80
2010,06,30,14,58,16.80
2010,06,30,14,59,16.70
2010,06,30,15,00,16.70
2010,06,30,15,01,16.60
2010,06,30,15,02,16.60
2010,06,30,15,03,16.50
2010,06,30,15,04,16.40
2010,06,30,15,05,16.40
2010,06,30,15,06,16.40
2010,06,30,15,07,16.50
2010,06,30,15,08,16.60
2010,06,30,15,09,16.70
2010,06,30,15,10,16.80
2010,06,30,15,11,16.80
2010,06,30,15,12,16.80
2010,06,30,15,13,16.80
2010,06,30,15,14,16.80
2010,06,30,15,15,16.80
2010,06,30,15,16,16.90
2010,06,30,15,17,16.80
2010,06,30,15,18,16.80
2010,06,30,15,19,16.80
2010,06,30,15,20,16.70
2010,06,30,15,21,16.70
2010,06,30,15,22,16.70
2010,06,30,15,23,16.70
2010,06,30,15,24,16.70
2010,06,30,15,25,16.70
2010,06,30,15,26,16.80
2010,06,30,15,27,16.80
2010,06,30,15,28,16.90
2010,06,30,15,29,17.00
2010,06,30,15,30,17.00
2010,06,30,15,31,17.00
2010,06,30,15,32,17.10
2010,06,30,15,33,17.10
2010,06,30,15,34,17.10
2010,06,30,15,35,17.10
2010,06,30,15,36,17.10
2010,06,30,15,37,17.10
2010,06,30,15,38,17.00
2010,06,30,15,39,16.90
2010,06,30,15,40,16.90
2010,06,30,15,41,17.00
2010,06,30,15,42,17.00
2010,06,30,15,43,17.10
2010,06,30,15,44,17.10
2010,06,30,15,45,17.10
2010,06,30,15,46,17.00
2010,06,30,15,47,17.00
2010,06,30,15,48,17.10
2010,06,30,15,49,17.00
2010,06,30,15,50,17.10
2010,06,30,15,51,17.10
2010,06,30,15,52,17.20
2010,06,30,15,53,17.20
2010,06,30,15,54,17.30
2010,06,30,15,55,17.30
2010,06,30,15,56,17.30
2010,06,30,15,57,17.20
2010,06,30,15,58,17.10
2010,06,30,15,59,17.10
2010,06,30,16,00,17.00
2010,06,30,16,01,16.90
2010,06,30,16,02,16.90
2010,06,30,16,03,16.90
2010,06,30,16,04,17.00
2010,06,30,16,05,17.00
2010,06,30,16,06,17.10
2010,06,30,16,07,17.10
2010,06,30,16,08,17.10
2010,06,30,16,09,17.10
2010,06,30,16,10,17.10
2010,06,30,16,11,17.20
2010,06,30,16,12,17.20
2010,06,30,16,13,17.20
2010,06,30,16,14,17.20
2010,06,30,16,15,17.20
2010,06,30,16,16,17.20
2010,06,30,16,17,17.20
2010,06,30,16,18,17.20
2010,06,30,16,19,17.20
2010,06,30,16,20,17.20
2010,06,30,16,21,17.10
2010,06,30,16,22,17.10
2010,06,30,16,23,17.10
2010,06,30,16,24,17.10
2010,06,30,16,25,17.00
2010,06,30,16,26,17.00
2010,06,30,16,27,17.00
2010,06,30,16,28,16.90
2010,06,30,16,29,16.90
2010,06,30,16,30,16.90
2010,06,30,16,31,16.90
2010,06,30,16,32,16.90
2010,06,30,16,33,17.00
2010,06,30,16,34,17.00
2010,06,30,16,35,17.00
2010,06,30,16,36,17.00
2010,06,30,16,37,16.90
2010,06,30,16,38,16.90
2010,06,30,16,39,16.90
2010,06,30,16,40,16.90
2010,06,30,16,41,16.90
2010,06,30,16,42,16.90
2010,06,30,16,43,16.90
2010,06,30,16,44,16.90
2010,06,30,16,45,16.90
2010,06,30,16,46,16.90
2010,06,30,16,47,17.00
2010,06,30,16,48,17.10
2010,06,30,16,49,17.10
2010,06,30,16,50,17.10
2010,06,30,16,51,17.10
2010,06,30,16,52,17.00
2010,06,30,16,53,17.00
2010,06,30,16,54,17.00
2010,06,30,16,55,17.10
2010,06,30,16,56,17.20
2010,06,30,16,57,17.30
2010,06,30,16,58,17.40
2010,06,30,16,59,17.40
2010,06,30,17,00,17.40
2010,06,30,17,01,17.30
2010,06,30,17,02,17.30
2010,06,30,17,03,17.30
2010,06,30,17,04,17.20
2010,06,30,17,05,17.20
2010,06,30,17,06,17.20
2010,06,30,17,07,17.10
2010,06,30,17,08,17.10
2010,06,30,17,09,17.10
2010,06,30,17,10,17.10
2010,06,30,17,11,17.10
2010,06,30,17,12,17.10
2010,06,30,17,13,17.10
2010,06,30,17,14,17.10
2010,06,30,17,15,17.20
2010,06,30,17,16,17.20
2010,06,30,17,17,17.20
2010,06,30,17,18,17.20
2010,06,30,17,19,17.20
2010,06,30,17,20,17.20
2010,06,30,17,21,17.30
2010,06,30,17,22,17.50
2010,06,30,17,23,17.60
2010,06,30,17,24,17.60
2010,06,30,17,25,17.50
2010,06,30,17,26,17.40
2010,06,30,17,27,17.40
2010,06,30,17,28,17.40
2010,06,30,17,29,17.40
2010,06,30,17,30,17.40
2010,06,30,17,31,17.30
2010,06,30,17,32,17.30
2010,06,30,17,33,17.20
2010,06,30,17,34,17.10
2010,06,30,17,35,17.10